Location: Canazei
(46.4667°N, 11.7667°E)
Time: 04:52:38
(UTC+00:00)

BREEZE-M R/B - Pass Details

Date: 21 April 2021
Orbit: 311 x 4505 km, 49.7° (Epoch: 10 May)

Event Time Altitude Azimuth Distance (km) Brightness Sun altitude
Exits shadow 02:36:25 10° 287° (WNW) 2,129 5.5 -15.8°
Maximum altitude 02:41:12 71° 11° (NNE) 1,123 4.4 -15.2°
Drops below altitude 10° 02:51:57 10° 96° (E) 4,586 8.2 -13.7°
Sets 02:57:10 0° 99° (E) 6,327 9.0 -12.9°
